Satellite-Ground Cal/Val Site Overpasses Predictions

Prediction of Satellite NPP Overpassing Cal/Val Site: Antarctic Dome C

Ground Cal/Val Site Location: Latitude: -75.10, Longitude: 123.35; Satellite-Ground Site NADIR distance within 100 km.

Table of predicted overpasses for the next 14.0 days since TLE Epoch: 8/6/2016
Interval Starting Time Ending Time Minimum Distance Time Minimum Distance (km)
1 08/06/2016 14:55:34 08/06/2016 14:56:03 08/06/2016 14:55:48 19.82
2 08/07/2016 14:36:52 08/07/2016 14:37:06 08/07/2016 14:36:59 87.17
3 08/08/2016 07:38:23 08/08/2016 07:38:50 08/08/2016 07:38:37 35.66
4 08/09/2016 07:19:37 08/09/2016 07:19:57 08/09/2016 07:19:47 74.47
5 08/11/2016 15:01:51 08/11/2016 15:02:15 08/11/2016 15:02:03 56.73
6 08/12/2016 14:43:00 08/12/2016 14:43:24 08/12/2016 14:43:12 52.43
7 08/13/2016 07:44:40 08/13/2016 07:45:01 08/13/2016 07:44:51 70.75
8 08/14/2016 07:25:48 08/14/2016 07:26:15 08/14/2016 07:26:01 37.30
9 08/16/2016 15:08:12 08/16/2016 15:08:21 08/16/2016 15:08:17 94.20
10 08/17/2016 14:49:11 08/17/2016 14:49:40 08/17/2016 14:49:
